FW0523 Weather Reports


Display with metric or nautical units.
time (UTC)temp
F
wind
direction
speed
MPH
gust
MPH
rain 1hr
in
rain 24hr
in
rain mn
in
humidity
%
barometer
mb
20260903145504 63 311 0.0 10.0 0.00 0.00 0.00 44 1026.9
20260903144502 60 172 0.0 9.0 0.00 0.00 0.00 49 1026.9
20260903143505 58 240 3.0 10.0 0.00 0.00 0.00 53 1026.9
20260903142504 57 360 2.0 2.0 0.00 0.00 0.00 56 1026.8
20260903141504 57 342 1.0 2.0 0.00 0.00 0.00 59 1026.9
20260903140503 57 332 0.0 5.0 0.00 0.00 0.00 59 1026.9
20260903135506 57 92 0.0 3.0 0.00 0.00 0.00 58 1026.8
20260903134504 58 336 1.0 9.0 0.00 0.00 0.00 55 1026.5
20260903133503 58 360 1.0 9.0 0.00 0.00 0.00 54 1026.5
20260903132503 57 141 2.0 9.0 0.00 0.00 0.00 56 1026.4
20260903131504 57 360 3.0 9.0 0.00 0.00 0.00 57 1026.3
20260903130503 56 360 1.0 6.0 0.00 0.00 0.00 60 1026.1
20260903125503 56 360 1.0 5.0 0.00 0.00 0.00 62 1026.1
20260903124504 56 360 1.0 3.0 0.00 0.00 0.00 61 1026.0
20260903122404 58 32 3.0 9.0 0.00 0.00 0.00 58 1025.9
20260903121403 57 360 1.0 8.0 0.00 0.00 0.00 58 1025.7
20260903120403 57 360 2.0 10.0 0.00 0.00 0.00 58 1025.6
20260903115404 57 349 1.0 5.0 0.00 0.00 0.00 60 1025.6
20260903114402 57 330 0.0 2.0 0.00 0.00 0.00 59 1025.6
20260903113403 58 195 1.0 1.0 0.00 0.00 0.00 59 1025.7
20260903112404 58 360 0.0 1.0 0.00 0.00 0.00 58 1025.6
20260903111402 59 360 0.0 0.0 0.00 0.00 0.00 56 1025.6
20260903110403 60 360 0.0 0.0 0.00 0.00 0.00 55 1025.6
20260903105403 61 360 0.0 0.0 0.00 0.00 0.00 52 1025.6
20260903104404 61 360 0.0 8.0 0.00 0.00 0.00 51 1025.6
20260903103402 62 360 1.0 10.0 0.00 0.00 0.00 51 1025.6
20260903102403 62 210 1.0 9.0 0.00 0.00 0.00 51 1025.7
20260903101404 62 360 0.0 3.0 0.00 0.00 0.00 50 1025.7
20260903095306 63 360 0.0 7.0 0.00 0.00 0.00 49 1025.9
20260903092104 63 222 0.0 4.0 0.00 0.00 0.00 47 1025.9
20260903091103 63 68 0.0 4.0 0.00 0.00 0.00 47 1025.7
20260903090103 63 114 1.0 10.0 0.00 0.00 0.00 47 1025.7
20260903085104 64 181 0.0 7.0 0.00 0.00 0.00 47 1025.7
20260903084102 64 360 0.0 9.0 0.00 0.00 0.00 46 1025.7
20260903082002 63 133 4.0 9.0 0.00 0.00 0.00 48 1025.9
20260903074802 63 45 1.0 10.0 0.00 0.00 0.00 48 1025.9
20260903073803 62 360 3.0 10.0 0.00 0.00 0.00 48 1025.9
20260903072804 62 162 2.0 9.0 0.00 0.00 0.00 49 1026.0
20260903071802 63 360 2.0 8.0 0.00 0.00 0.00 48 1025.9
20260903070803 62 360 2.0 8.0 0.00 0.00 0.00 47 1025.9
20260903065804 62 88 2.0 4.0 0.00 0.00 0.00 48 1026.0
20260903062604 61 356 0.0 6.0 0.00 0.00 0.00 49 1025.9
20260903061602 61 360 1.0 8.0 0.00 0.00 0.00 49 1025.9
20260903060603 60 330 1.0 5.0 0.00 0.00 0.00 51 1025.9
20260903055604 60 309 1.0 6.0 0.00 0.00 0.00 51 1026.1
20260903054602 61 360 0.0 10.0 0.00 0.00 0.00 50 1026.0
20260903053603 61 360 0.0 9.0 0.00 0.00 0.00 50 1026.1
20260903052603 61 316 0.0 9.0 0.00 0.00 0.00 49 1026.1
20260903051604 61 360 0.0 9.0 0.00 0.00 0.00 49 1026.1
20260903050604 62 360 2.0 7.0 0.00 0.00 0.00 49 1026.3
20260903045603 62 360 0.0 10.0 0.00 0.00 0.00 47 1026.4
20260903044604 63 360 0.0 8.0 0.00 0.00 0.00 46 1026.4
20260903043604 63 312 0.0 1.0 0.00 0.00 0.00 46 1026.3
20260903041503 63 339 1.0 3.0 0.00 0.00 0.00 45 1026.3
20260903035403 64 360 0.0 9.0 0.00 0.00 0.00 43 1026.0
20260903034404 64 360 2.0 10.0 0.00 0.00 0.00 44 1026.0
20260903033404 63 216 3.0 10.0 0.00 0.00 0.00 45 1026.0
20260903032403 63 360 1.0 8.0 0.00 0.00 0.00 47 1025.9
20260903031404 61 360 2.0 9.0 0.00 0.00 0.00 49 1025.7
20260903030404 60 100 2.0 10.0 0.00 0.00 0.00 54 1025.9
20260903024302 61 360 0.0 9.0 0.00 0.00 0.00 55 1026.0
20260903023303 62 174 2.0 10.0 0.00 0.00 0.00 52 1026.1
20260903022306 62 360 1.0 10.0 0.00 0.00 0.00 51 1026.1
20260903015104 60 10 5.0 10.0 0.00 0.00 0.00 57 1026.3
20260903014104 60 347 2.0 9.0 0.00 0.00 0.00 66 1026.4
20260903013103 60 360 2.0 8.0 0.00 0.00 0.00 66 1026.4
20260903012103 61 116 0.0 2.0 0.00 0.00 0.00 63 1026.7
20260903011104 62 171 0.0 7.0 0.00 0.00 0.00 62 1027.2
20260903005103 63 360 2.0 8.0 0.00 0.00 0.00 57 1028.1
20260903004104 65 360 5.0 9.0 0.00 0.00 0.00 54 1028.7
20260903003104 66 360 2.0 7.0 0.00 0.00 0.00 49 1028.3
20260903002103 67 195 0.0 8.0 0.00 0.00 0.00 48 1027.6
20260903001104 68 360 1.0 10.0 0.00 0.00 0.00 44 1027.1
20260902234002 68 133 6.0 12.0 0.00 0.00 0.00 42 1026.8
20260902233003 68 137 2.0 9.0 0.00 0.00 0.00 42 1026.4
20260902232004 69 319 1.0 10.0 0.00 0.00 0.00 41 1026.5
20260902231002 68 360 1.0 16.0 0.00 0.00 0.00 43 1026.8
20260902230003 68 203 4.0 19.0 0.00 0.00 0.00 43 1027.5
20260902225004 70 360 4.0 20.0 0.00 0.00 0.00 41 1027.6
20260902224004 74 360 8.0 23.0 0.00 0.00 0.00 33 1027.3
20260902223002 76 360 5.0 21.0 0.00 0.00 0.00 26 1025.9
20260902222004 78 335 2.0 5.0 0.00 0.00 0.00 21 1025.5
20260902221003 80 322 0.0 6.0 0.00 0.00 0.00 19 1025.1
20260902220003 78 360 1.0 6.0 0.00 0.00 0.00 21 1025.1
20260902215003 77 360 2.0 5.0 0.00 0.00 0.00 23 1025.1
20260902214004 77 16 9.0 6.0 0.00 0.00 0.00 21 1025.2
20260902213004 77 342 2.0 7.0 0.00 0.00 0.00 21 1025.1
20260902212002 77 340 2.0 6.0 0.00 0.00 0.00 22 1025.1
20260902211003 77 330 2.0 12.0 0.00 0.00 0.00 22 1025.1
20260902204903 76 354 4.0 8.0 0.00 0.00 0.00 23 1025.2
20260902202802 74 329 2.0 5.0 0.00 0.00 0.00 25 1025.6
20260902201802 73 340 2.0 4.0 0.00 0.00 0.00 25 1025.9
20260902200803 73 23 3.0 9.0 0.00 0.00 0.00 26 1026.0
20260902195803 73 301 5.0 9.0 0.00 0.00 0.00 27 1026.3
20260902194804 73 347 5.0 12.0 0.00 0.00 0.00 27 1026.3
20260902193804 74 18 3.0 9.0 0.00 0.00 0.00 27 1026.3
20260902192802 74 28 3.0 8.0 0.00 0.00 0.00 26 1026.5
20260902191802 74 302 0.0 9.0 0.00 0.00 0.00 28 1026.8
20260902190803 73 47 2.0 8.0 0.00 0.00 0.00 28 1027.1
20260902184702 73 134 5.0 11.0 0.00 0.00 0.00 27 1027.1
20260902183702 72 110 3.0 8.0 0.00 0.00 0.00 28 1027.2
20260902182703 72 150 0.0 8.0 0.00 0.00 0.00 28 1027.5
20260902181703 72 210 0.0 5.0 0.00 0.00 0.00 26 1027.5
20260902180703 72 360 1.0 6.0 0.00 0.00 0.00 25 1027.6
20260902175704 72 104 1.0 6.0 0.00 0.00 0.00 25 1027.7
20260902174702 72 54 0.0 1.0 0.00 0.00 0.00 25 1027.7
20260902172604 72 203 3.0 5.0 0.00 0.00 0.00 25 1027.9
20260902171602 73 357 0.0 0.0 0.00 0.00 0.00 25 1027.7
20260902170603 73 329 1.0 6.0 0.00 0.00 0.00 25 1027.7
20260902165603 73 360 1.0 6.0 0.00 0.00 0.00 25 1027.9
20260902164603 72 360 0.0 9.0 0.00 0.00 0.00 27 1027.9
20260902163604 72 360 0.0 6.0 0.00 0.00 0.00 26 1028.0
20260902162604 72 14 1.0 6.0 0.00 0.00 0.00 27 1027.9
20260902161602 72 147 5.0 10.0 0.00 0.00 0.00 26 1027.9
20260902155504 71 232 3.0 9.0 0.00 0.00 0.00 31 1028.0
20260902154502 70 92 5.0 9.0 0.00 0.00 0.00 34 1028.0
20260902153503 69 172 4.0 10.0 0.00 0.00 0.00 35 1028.0
20260902152504 68 360 3.0 10.0 0.00 0.00 0.00 37 1028.1
20260902151502 67 117 3.0 9.0 0.00 0.00 0.00 39 1028.3
20260902150503 66 360 3.0 10.0 0.00 0.00 0.00 42 1028.4